www.pogodaiklimat.ru

АРХИВ ПОГОДЫ в Виннемукке

Время (UTC), дата Ветер
(напр.,м/с)
 
Видим.   Явления Облачность Т
(С)
Тd
(С)
f
(%)
Тe
(С)
Тes
(С)
Комфортность

P
(гПа)

Po
(гПа)
Тmin
(С)
Tmax
(С)
R
(мм)
SD
(см)
20:56 23.06 З  6
{10} 
16 км    ясно  +28.9  -2.8  12  +26  +31  жарко  1013.4  868.3         
21:56 23.06 З  10
{13} 
16 км    ясно  +30.0  -3.3  11  +27  +27  жарко  1013.1  868.0         
22:56 23.06 З  8
{11} 
16 км    ясно  +29.4  -1.1  14  +27  +28  жарко  1012.7  867.7  +25.0  +30.0     
23:56 23.06 СЗ  16 км    ясно  +28.9  -1.7  14  +26  +28  жарко  1012.2  867.2         
00:56 24.06 З  5
{8} 
16 км    ясно  +27.8  -1.7  14  +25  +27  комфорт  1011.3  866.9         
01:56 24.06 СЗ  16 км    ясно  +25.6  -3.9  14  +23  +24  комфорт  1011.1  866.9         
02:56 24.06 С  16 км    ясно  +20.6  -1.1  23  +21  +21  комфорт  1011.3  867.2         
03:56 24.06 З  16 км    ясно  +15.6  -2.8  28  +15  +15    1012.3  867.7         
04:56 24.06 СЗ  16 км    ясно  +15.6  -2.2  29  +15  +15    1011.9  867.7  +13.9  +29.4     
05:56 24.06 З  16 км    ясно  +12.2  -1.7  38  +11  +11    1012.4  868.0         
06:56 24.06 С  16 км    ясно  +13.9  -0.6  37  +13  +13    1012.3  868.0         
07:56 24.06 СЗ  16 км    ясно  +12.2  +1.1  47  +11  +11    1012.4  868.0         
08:56 24.06   16 км    ясно  +9.4  -0.6  50  +9  +9    1013.0  868.3         
09:56 24.06 нст  16 км    ясно  +7.2  -1.1  56  +6  +6    1013.1  868.3         
10:56 24.06 СЗ  16 км    ясно  +7.8  -0.6  55  +7  +7    1013.1  868.3  +6.7  +16.1     
11:56 24.06 Ю  16 км    ясно  +6.1  0.0  65  +3  +3    1013.8  868.9         
12:56 24.06 Ю  16 км    ясно  +11.7  +0.6  46  +11  +11    1013.4  868.9         
13:56 24.06   16 км    ясно  +15.6  +1.1  37  +16  +18    1013.0  868.6         
14:56 24.06 нст  16 км  слабый дождь  ясно  +20.0  -0.6  25  +21  +26  комфорт  1012.8  868.6         
15:56 24.06 ЮВ  16 км    ясно  +22.8  +0.6  23  +22  +30  комфорт  1012.8  868.3         
16:56 24.06 нст  16 км    ясно  +23.9  +0.6  22  +23  +37  комфорт  1012.0  867.7  +5.0  +25.0     
17:56 24.06 ЮЗ  6
{8} 
16 км    ясно  +26.7  0.0  17  +25  +29  комфорт  1011.3  866.9         
18:56 24.06 ЮЗ  7
{9} 
16 км    ясно  +27.8  -1.1  15  +25  +29  комфорт  1010.1  866.3         
19:56 24.06 З  5
{9} 
16 км    2/0 3000 м
[средняя] 
+28.3  -0.6  15  +26  +32  жарко  1009.3  865.4         
20:56 24.06 З  9
{11} 
16 км    ясно  +30.0  -0.6  14  +27  +28  жарко  1008.6  864.9         
21:56 24.06 З  6
{10} 
16 км    ясно  +28.9  +0.6  16  +26  +31  жарко  1008.3  864.3         
22:56 24.06 нст  16 км    ясно  +27.2  +0.6  18  +25  +36  комфорт  1007.7  863.7  +23.9  +30.6     
23:56 24.06 СЗ  4
{9} 
16 км    2/0 3600 м
[средняя] 
+27.8  +0.6  17  +26  +29  жарко  1007.1  863.1         
00:56 25.06 З  16 км    ясно  +27.2  0.0  17  +25  +28  комфорт  1006.3  862.8         
01:56 25.06 З  16 км    ясно  +24.4  +1.1  22  +23  +24  комфорт  1006.2  862.8         
02:56 25.06 З  16 км    ясно  +22.2  0.0  23  +22  +22  комфорт  1006.4  863.1         
03:56 25.06 ЮЗ  16 км    ясно  +21.7  0.0  24  +21  +21  комфорт  1007.1  864.0         
04:56 25.06 З  16 км    ясно  +20.6  0.0  25  +21  +21  комфорт  1007.3  864.3  +20.0  +28.9     
05:56 25.06 ЮЗ  16 км    ясно  +20.6  0.0  25  +21  +21  комфорт  1007.3  864.6         
06:56 25.06 З  16 км    ясно  +19.4  -1.1  25  +19  +19    1007.2  864.6         
07:56 25.06 ЮЗ  16 км    ясно  +17.2  0.0  31  +17  +17    1007.4  864.6         
08:56 25.06 ЮЗ  16 км    ясно  +16.7  +1.1  35  +16  +16    1007.4  864.6         
09:56 25.06 ЮЗ  16 км    ясно  +19.4  +1.1  29  +19  +19    1007.4  864.9         
10:56 25.06 З  16 км    ясно  +14.4  +2.2  44  +14  +14    1008.3  864.9  +14.4  +21.1     
11:56 25.06 Ю  16 км    ясно  +12.2  +2.2  50  +11  +11    1008.6  864.9         
12:56 25.06 ЮВ  16 км    ясно  +17.8  +4.4  41  +18  +18    1008.3  865.1         
13:56 25.06 С  16 км    ясно  +21.7  +3.3  30  +22  +24  комфорт  1008.4  865.4         
14:56 25.06 Ю  16 км    ясно  +23.3  +2.8  26  +23  +26  комфорт  1008.3  865.1         
15:56 25.06 нст  16 км    ясно  +24.4  +2.2  23  +23  +31  комфорт  1007.5  864.6         
16:56 25.06 ЮЗ  4
{11} 
16 км    ясно  +25.6  -1.1  17  +24  +31  комфорт  1007.3  864.6  +11.7  +26.1     
17:56 25.06     16 км    ясно  +26.7  -1.7  15  +24  +47  комфорт  1006.6  864.0         
18:56 25.06 нст  16 км    ясно  +27.2  -1.7  15  +25  +42  комфорт  1006.1  863.4         
19:56 25.06 З  5
{10} 
16 км    ясно  +28.9  -2.8  12  +26  +33  жарко  1005.3  862.8         

 

Местоположение метеостанции Winnemucca Municipal Airport: широта 40.9019 долгота -117.8072 высота над уровнем моря 1311 м.

В архиве по умолчанию представлена погода в Виннемукке за последние 1-2 суток. Обновление информации о фактической погоде в базе происходит ежечасно! Архивные данные за месяц целиком и за предыдущие месяцы Вы можете получить, выбрав интересующий диапазон дат из раскрывающегося списка и нажав кнопку "Ввод!".

Внимание! Архив погоды МЕТАР в базе сайта в настоящее время начинается c 1 января 2011 г. Нет смысла пытаться выбрать более раннюю дату.

Внимание! Время в таблицах - всемирное. Для получения местного времени необходимо прибавить поправку, которая в Виннемукке равна -8 ч.

Ветер - указаны скорость ветра в м/с и направление, откуда дует ветер: С - северный, СВ - северо-восточный, В - восточный, ЮВ - юго-восточный, Ю - южный, ЮЗ - юго-западный, З - западный, СЗ - северо-западный.
Видимость - горизонтальная дальность видимости в метрах или километрах. При видимости от 1 до 10 км при отсутствии осадков обычно наблюдается дымка, при ухудшении видимости до 1 км и менее - туман. В сухую погоду видимость может ухудшаться дымом, пылью или мглою.
Атмосферные явления - указаны явления, наблюдавшиеся в указанный момент времени.
Облачность - указаны через наклонную черту верхняя и нижняя облачность в баллах и высота нижней границы облаков в метрах. Внимание: облачность, как и прочие метеорологические величины в США измеряются автоматическими метеостанциями. Указанные значения в баллах носят условный характер и показывают процент времени, в течение которого, в среднем, лазерный луч высотомера отражался от облаков обратно.
T - Температура воздуха - температура, измеренная на высоте 2 м над землей.
Td - Температура точки росы - температура, при понижении до которой содержащийся в воздухе водяной пар достигнет насыщения.
f - Относительная влажность воздуха - влажноcть воздуха, измеренная на высоте 2 м над землей.
Te - Эффективная температура - температура, которую ощущает одетый по сезону человек в тени. Характеристика душности погоды. При расчете учитывается влияние влажности воздуха и скорости ветра на теплоощущения человека.
Tes - Эффективная температура на солнце - температура, которую ощущает человек, с поправкой на солнечный нагрев. Характеристика знойности погоды. Зависит от высоты солнца над горизонтом, облачности и скорости ветра. Ночью, в пасмурную погоду, а также при ветре 12 м/с и более поправка равна нулю.
P - Атмосферное давление - приведенное к уровню моря атмосферное давление.
Po - Атмосферное давление - измеренное на уровне метеостанции атмосферное давление.
Tmin - Минимальная температура - минимум температуры воздуха на высоте 2 м над землей.
Tmax - Максимальная температура - максимум температуры воздуха на высоте 2 м над землей.
R - Количество осадков - Количество выпавших осадков за 3 или 6 часов, мм.
SD - Снежный покров - Высота снежного покрова, см.